This is the latest recevied weather packets stored in our database for station/object K7CTM. If no packets are shown the sender has not sent any weather packets the latest 1 day(s).
| Time | Temp. | Humidity | Pressure | Rain* | Wind** | Luminosity | Snow |
|---|---|---|---|---|---|---|---|
| 1778005142 | 8.33° C | 39% | 1026.6 hPa | 0 mm | 2.68 m/s, 263° | 817 W/m² | - |
| 1778004840 | 7.78° C | 41% | 1026.6 hPa | 0 mm | 1.34 m/s, 307° | 330 W/m² | - |
| 1778004537 | 8.89° C | 39% | 1026.5 hPa | 0 mm | 1.34 m/s, 186° | 339 W/m² | - |
| 1778004233 | 8.33° C | 40% | 1026.6 hPa | 0 mm | 1.34 m/s, 56° | 459 W/m² | - |
| 1778003930 | 9.44° C | 39% | 1026.8 hPa | 0 mm | 5.81 m/s, 323° | 406 W/m² | - |
| 1778003626 | 8.89° C | 41% | 1026.8 hPa | 0 mm | 1.79 m/s, 328° | 500 W/m² | - |
| 1778003323 | 7.78° C | 42% | 1026.5 hPa | 0 mm | 1.79 m/s, 281° | 516 W/m² | - |
| 1778003020 | 7.78° C | 41% | 1026.8 hPa | 0 mm | 1.34 m/s, 321° | 318 W/m² | - |
| 1778002716 | 7.78° C | 42% | 1026.6 hPa | 0 mm | 0.89 m/s, 168° | 315 W/m² | - |
| 1778002413 | 7.78° C | 42% | 1026.6 hPa | 0 mm | 1.34 m/s, 10° | 354 W/m² | - |
| 1778002110 | 7.78° C | 43% | 1026.6 hPa | 0 mm | 1.79 m/s, 255° | 318 W/m² | - |
| 1778001808 | 8.33° C | 41% | 1026.5 hPa | 0 mm | 2.24 m/s, 273° | 280 W/m² | - |
| 1778001507 | 8.33° C | 42% | 1026.6 hPa | 0 mm | 1.34 m/s, 26° | 665 W/m² | - |
| 1778001199 | 7.22° C | 42% | 1026.6 hPa | 0 mm | 3.58 m/s, 341° | 241 W/m² | - |
| 1778000895 | 7.22° C | 42% | 1026.8 hPa | 0 mm | 1.79 m/s, 345° | 275 W/m² | - |
| 1778000593 | 7.22° C | 43% | 1026.8 hPa | 0 mm | 3.58 m/s, 357° | 258 W/m² | - |
| 1778000288 | 7.22° C | 42% | 1026.9 hPa | 0 mm | 1.34 m/s, 336° | 273 W/m² | - |
| 1777999984 | 7.22° C | 44% | 1027 hPa | 0 mm | 0.89 m/s, 349° | 282 W/m² | - |
| 1777999679 | 7.22° C | 45% | 1026.6 hPa | 0 mm | 1.79 m/s, 346° | 192 W/m² | - |
| 1777999377 | 7.78° C | 43% | 1026.6 hPa | 0 mm | 0.89 m/s, 242° | 213 W/m² | - |
| 1777999075 | 7.78° C | 42% | 1026.6 hPa | 0 mm | 1.34 m/s, 317° | 284 W/m² | - |
| 1777998773 | 7.78° C | 40% | 1026.9 hPa | 0 mm | 0.89 m/s, 299° | 240 W/m² | - |
| 1777998470 | 8.33° C | 40% | 1026.8 hPa | 0 mm | 3.13 m/s, 50° | 290 W/m² | - |
| 1777998167 | 8.89° C | 40% | 1026.8 hPa | 0 mm | 1.79 m/s, 335° | 439 W/m² | - |
| 1777997864 | 7.78° C | 44% | 1026.9 hPa | 0 mm | 1.34 m/s, 276° | 503 W/m² | - |
* Rain latest hour (hover to see other rain measurements)
** Current wind speed in m/s (hover to see current wind gust speed)